sat.trackr.live / text

‹ back to catalog

STARLINK-34621

NORAD 64774 · 2025-147V

PAYLOAD ACTIVE UNKNOWN

§ Identity

Operator
Country
US
Launch date
2025-07-08
Launch site
AFETR
Launch vehicle
Mass (kg)
RCS (m²)

Purposes: comms

External: N2YO · Heavens-Above · Gunter

§ Orbital elements

Epoch: 2026-05-25T00:21:57.523104Z

Period
94.10 min
Inclination
53.1604°
Eccentricity
0.0001535
Mean motion
15.30207269 rev/d
Perigee alt
474.1 km
Apogee alt
476.2 km
Semi-major
6,853.3 km
B*
9.7905e-4
RAAN
248.4980°
Arg perigee
90.0774°
Mean anomaly
270.0402°
Rev number
5,036

§ Raw data

STARLINK-346211 64774U 25147V   26145.01524911  .00028756  00000+0  97905-3 0  99982 64774  53.1604 248.4980 0001535  90.0774 270.0402 15.30207269 50369

JSON: /api/v1/satellites/64774 · /tle

For live sub-satellite position, see the globe view (requires WebGL).

§ Visibility from observer

Set your observer location to see the next 7 days of passes ≥ 10°. The values pass through the URL so the page stays shareable.

No JS? Fill the form by hand. The geolocation button needs JavaScript.